Regional Weather Roundup
Issued by NWS Charleston, SC

Current Version | Previous Version | Graphics & Text | Print | Product List | Glossary On
Versions: 1 2 3 4 5 6 7 8 9 10 11 12 13 14 15 16 17 18 19 20 21 22 23 24 25 26 27 28 29 30 31 32 33 34 35 36 37 38 39 40 41 42 43 44 45 46 47 48 49 50
000
ASUS42 KCHS 111410
RWRCHS

REGIONAL WEATHER ROUNDUP
NATIONAL WEATHER SERVICE CHARLESTON SC
1000 AM EDT FRI JUL 11 2014

NOTE: "FAIR" INDICATES FEW OR NO CLOUDS BELOW 12,000 FEET WITH NO
SIGNIFICANT WEATHER AND/OR OBSTRUCTIONS TO VISIBILITY.

NOT ALL STATIONS ARE QUALITY CONTROLLED BY THE NATIONAL
WEATHER SERVICE. USE DATA WITH CAUTION...ESPECIALLY
DEWPOINT OBSERVATIONS.

SCZ027-030-031-034>040-042>050-111500-
...SOUTH CAROLINA...

CITY           SKY/WX    TMP DP  RH WIND       PRES   REMARKS
N CHARLESTON   CLOUDY    80  71  74 W5        30.16S
WATERFRONT PRK   N/A     81 N/A N/A W6          N/A
FORT JOHNSON   NOT AVBL
MOUNT PLEASANT FAIR      82  72  69 W6        30.16S
JOHNS ISLAND   SUNNY     82  68  61 CALM      30.17R
PINOPOLIS        N/A     79  72  78 W3        30.09S
MONCKS CORNER  DRIZZLE   77  75  94 CALM      30.17R
SUMMERVILLE    LGT RAIN  75  73  94 CALM      30.18R
BEAUFORT MCAS  PTSUNNY   80  70  71 NW5       30.16S
BEAUFORT ARPT  FAIR      81  73  78 W3        30.16S
HILTON HEAD IS PTSUNNY   81  73  78 SW5       30.17S
GEORGETOWN     NOT AVBL
WALTERBORO     CLOUDY    77 N/A N/A CALM      30.17R
ORANGEBURG     CLOUDY    77  71  82 CALM      30.17R
BARNWELL       CLOUDY    75  73  94 SW3       30.17S
AIKEN          CLOUDY    77  77 100 CALM      30.20R
MANNING        CLOUDY    75 N/A N/A NE3       30.18R
KINGSTREE      NOT AVBL
COLUMBIA       CLOUDY    78  72  81 VRB3      30.16S
SUMTER         CLOUDY    75  73  94 E5        30.17R
FLORENCE       CLOUDY    74  71  91 SE5       30.18S
MYRTLE BEACH   NOT AVBL
N MYRTLE BEACH CLOUDY    75  71  87 N6        30.17S

$$

GAZ063-065-086>088-099>101-113>116-118-119-134-136>141-150-111500-
...GEORGIA...

CITY           SKY/WX    TMP DP  RH WIND       PRES   REMARKS
SAVANNAH ARPT  CLOUDY    81  71  71 CALM      30.16S
HUNTER AAF     MOSUNNY   82  75  79 S3        30.14F
FORT STEWART   MOSUNNY   80  74  84 NE2       30.15S
STATESBORO     NOT AVBL
SYLVANIA       CLOUDY    76  76 100 CALM      30.17S
CLAXTON        FAIR      79  79 100 CALM      30.16R
THOMSON        PTSUNNY   81  78  90 CALM      30.21R
AUGUSTA-BUSH   PTSUNNY   81  71  71 S5        30.15R
AUGUSTA-DANIEL PTSUNNY   80  71  74 CALM      30.17R
SWAINSBORO     FAIR      79  79 100 CALM      30.17R
VIDALIA          N/A     77  72  83 CALM      30.17R
ALMA           PTSUNNY   79  73  82 SW3       30.15S
WAYCROSS       PTSUNNY   84  77  78 CALM      30.15S HX  94
JESUP          NOT AVBL
BRUNSWICK      MOSUNNY   82  72  69 CALM      30.17R
SAINT SIMONS   MOSUNNY   83  72  69 VRB3      30.16R

$$

SCZ027-028-034-036>038-045-046-048>050-GAZ119-141-111500-
...LAKE AND SUPPLEMENTAL COASTAL OBSERVATIONS...

STATION/POSITION TIME  TEMP    WIND        PRES    WAVE   SWELL
                       AIR SEA DIR/SP/G            HT/PER HT/PER/DIR
                 (UTC) (F)     (DEG/KT/KT) (MB)    (FT/S) (FT/S/D)
UPR LAKE MARION  NOT AVBL
WINYAH BAY       1300   77     290/  1     1021.0S
LAKE MURRAY      1300   77      CALM  /  3 1021.0R
ACE BASIN NERRS  1300   77     250/  1     1021.0S
FORT PULASKI     1400   79 78   CALM  /  1   N/A
SAPELO ISLAND    1300   81     300/  4     1021.0S

$$

ANZ835-935-AMZ111-154-330-350-352-354-374-450-454-472-111500-
...C-MAN AND BUOY OBSERVATIONS...

STATION/POSITION TIME  TEMP    WIND        PRES    WAVE   SWELL
                       AIR SEA DIR/SP/G            HT/PER HT/PER/DIR
                 (UTC) (F)     (DEG/KT/KT) (MB)    (FT/S) (FT/S/D)
FOLLY BEACH CMAN 1300   80     290/  4/  5 1021.6R
BUOY 41004       1400   81 82  190/ 10/ 12 1020.4R   3/ 5   2/ 5
BUOY 41008       1400   81 84  340/  4/  6 1021.1R   2/ 5   2/130/ 5
5E ST. MARYS GA  1400      83                N/A     2/10
FRYING PAN BUOY  NOT AVBL
BUOY 41025       1400          VRB 10/ 10  1021.5R   3/ 6   2/160/ 6
CAPE LOOKOUT NC  1300   78     290/  3/  3 1021.2R
BUOY 41002       1350   81 81  200/  6/  8 1023.3R   3/ 9   3/ 80/ 9
BUOY 41010       1400   82 83  150/  6/  8 1022.0R   2/ 9   2/130/ 9
BUOY 41012       NOT AVBL
ST AUGUSTINE FL  1400   79     190/  5/  6 1022.5R
CAPERS NEARSHORE 1300   81     300/  8/ 10   N/A
FRIPP NEARSHORE  1300   81     280/  6/  8   N/A


$$


USA.gov is the U.S. government's official web portal to all federal, state and local government web resources and services.